Weather in Okayama

Japan     34°39′54″N   133°55′03″E
temp.,
°C
wind,
m/s
gust,
m/s
humid.,
%
clouds,
%
prec.,
mm/h
press.,
hPa
HPBL,
m
28 november, sun
sun2800:00+6wnw12642 0.0 1034115
03:00+5wnw12681 0.0 1033108
06:00+5nw11684 0.0 103470
09:00+8nnw12575 0.0 1035205
12:00+12nne13412 0.0 10331406
15:00+13e02374 0.0 10321567
18:00+10e11478 0.0 103246
21:00+8n2256100 0.0 103283
29 november, mon
mon2900:00+7n2261100 0.0 1032101
03:00+7n2265100 0.0 103187
06:00+6n1269100 0.0 103161
09:00+8nne1162100 0.0 1031195
12:00+12ssw124696 0.0 1029763
15:00+13sw234165 0.0 10271075
18:00+11sse12505 0.0 102867
21:00+10ne11575 0.0 102814
30 november, tue
tue3000:00+8n11648 0.0 102743
03:00+7nne22690 0.0 102565
06:00+7n227073 0.0 102449
09:00+9nne1163100 0.0 1022145
12:00+15se475690 0.0 1017614
15:00+16se71167100 0.0 1011960
18:00+16sse81376100 0.6 1009875
21:00+14sw41098100 18.0 1008710
1 december, wed
wed100:00+13wsw61280100 3.6 10071027
03:00+9w815625 3.6 10101402
06:00+7w614647 0.0 10121551
09:00+7w715555 0.1 10141754
12:00+8w8144424 0.0 10131957
15:00+8w815455 0.0 10142107
18:00+6w513495 0.0 10161757
21:00+5w410535 0.0 10181255
2 december, thu
thu200:00+4wsw49585 0.0 1019676
03:00+4w38615 0.0 1019464
06:00+4wsw26635 0.0 1020275
09:00+6wsw26545 0.0 1021586
12:00+10wsw57435 0.0 10181546
15:00+11wsw474134 0.0 10171795
18:00+9wsw255245 0.0 1019375
21:00+7w15595 0.0 1020246